Погода в Шакке

Италия     37°30′48″N   13°04′40″E
темп.,
°C
ветер,
м/с
пор.,
м/с
влажн.,
%
обл.,
%
осадки,
мм/ч
давл.,
гПа
погр.,
м
26 октября, вт
вт2623:00+20св117591 0.0 101451
02:00+19ссв22765 0.0 101475
05:00+18с338050 0.0 1013113
08:00+18с348438 0.0 1013154
11:00+21св34676 0.0 1014481
14:00+22зсз126683 0.1 1014316
17:00+22св347139 0.4 1014359
20:00+20с337880 1.6 1015114
27 октября, ср
ср2723:00+20ю2379100 1.4 101695
02:00+19ююв4683100 4.1 1017302
05:00+19ююв6881100 1.4 1016405
08:00+19юв6977100 1.6 1017644
11:00+20вюв6972100 0.1 1018997
14:00+20юв5769100 0.1 1017790
17:00+20юв3473100 0.6 1016394
20:00+17вюв4489100 3.7 1017243
28 октября, чт
чт2823:00+17зсз2492100 4.8 1016293
02:00+17сз5790100 11.4 1015362
05:00+17ссз71087100 5.6 1012696
08:00+17с5681100 7.5 1013346
11:00+19ссв7973100 0.0 1013477
14:00+21ссв8868100 0.0 1011522
17:00+19с9137972 0.1 1010499
20:00+18ссз121687100 4.9 1008745
29 октября, пт
пт2923:00+18зсз9990100 21.4 1007582
02:00+18зюз91193100 33.8 1011763
05:00+17зсз91187100 4.1 1013778
08:00+18зсз8108267 5.8 1014878
11:00+18зсз6879100 1.1 1016937
14:00+18зсз347739 1.8 1017595
17:00+18зсз33769 0.3 1017424
20:00+17с227891 0.3 1018228
30 октября, сб
сб3023:00+17ссз227513 0.0 1019152
02:00+17с227497 0.0 1018147
05:00+17с2273100 0.0 1018139
08:00+16с3372100 0.0 1019151
11:00+19с11595 0.0 1020275
14:00+20з33570 0.0 1020628
17:00+20зсз44680 0.0 1019241
20:00+19ссз447671 0.0 1021135